SHIELDS 1

Last updated on Sat Aug 30 2025 00:03:48 GMT+0000 (Coordinated Universal Time)

1 43850U 18104B 25241.27538865 .00056951 00000+0 54626-3 0 9993 2 43850 85.0162 339.5181 0006312 178.0064 182.1228 15.66398740374065
UTC large
Height (km)
Speed (km/s)
/
Latitude / Longitude
Inclination (degrees)
Orbital Period (minutes)
Azimuth
Elevation
Range (km)
Doppler Factor

Next 0 passes for location: London (51.5072 / 0.1276)

Sorry there are no passes over London.